Weather History for Joplin, MO

Change the Weather History Date:

Wednesday, April 23, 2014

  Actual Average Record
Temperature  
Mean Temperature 65 °F 61 °F  
Max Temperature 81 °F 72 °F 90 °F (1989)
Min Temperature 48 °F 49 °F 35 °F (1956)
Degree Days  
Heating Degree Days 0 6  
Month to date heating degree days 221 205  
Since 1 July heating degree days 4733 3967  
Cooling Degree Days 0 2  
Month to date cooling degree days 12 30  
Year to date cooling degree days 12 40  
Growing Degree Days 14 (Base 50)    
Moisture  
Dew Point 42 °F    
Average Humidity 48    
Maximum Humidity 66    
Minimum Humidity 30    
Precipitation  
Precipitation 0.00 in 0.18 in 1.49 in (2004)
Month to date precipitation 0.87 3.20  
Year to date precipitation 3.60 10.97  
Sea Level Pressure  
Sea Level Pressure 29.88 in    
Wind  
Wind Speed 12 mph (SE)    
Max Wind Speed 22 mph    
Max Gust Speed 32 mph    
Visibility 10 miles    
Events      
T = Trace of Precipitation, MM = Missing Value Source: NWS Daily Summary

Daily Weather History Graph

Daily Weather History Graph

Search for Another Location

Airport:

Trip Planner

Search our weather history database for the weather conditions in past years. The results will help you decide how hot, cold, wet, or windy it might be!

Date:

Astronomy

Apr. 23, 2014 Rise Set
Actual Time 6:32 AM CDT 8:00 PM CDT
Civil Twilight 6:05 AM CDT 8:27 PM CDT
Nautical Twilight 5:32 AM CDT 9:00 PM CDT
Astronomical Twilight 4:58 AM CDT 9:35 PM CDT
Moon 2:56 AM CDT (4/23) 2:17 PM CDT (4/23)
Length of Visible Light 14h 21m
Length of Day
13h 27m
Waning Crescent, 34% of the Moon is Illuminated
Apr 23
Waning Crescent
Apr 29
New
May 6
First Quarter
May 14
Full
May 21
Last Quarter

Hourly Weather History & Observations

Time (CDT) Temp. Dew Point Humidity Pressure Visibility Wind Dir Wind Speed Gust Speed Precip Events Conditions
12:53 AM 52.0 °F 37.9 °F 59% 29.98 in 10.0 mi East 4.6 mph - N/A   Clear
1:53 AM 51.1 °F 37.9 °F 61% 29.97 in 10.0 mi ESE 4.6 mph - N/A   Clear
2:53 AM 51.1 °F 37.9 °F 61% 29.96 in 10.0 mi East 8.1 mph - N/A   Clear
3:53 AM 48.9 °F 37.9 °F 66% 29.96 in 10.0 mi East 8.1 mph - N/A   Partly Cloudy
4:53 AM 51.1 °F 36.0 °F 56% 29.95 in 10.0 mi ESE 8.1 mph - N/A   Clear
5:53 AM 51.1 °F 36.0 °F 56% 29.95 in 10.0 mi SE 8.1 mph - N/A   Clear
6:53 AM 51.1 °F 37.0 °F 59% 29.97 in 10.0 mi ESE 5.8 mph - N/A   Mostly Cloudy
7:53 AM 54.0 °F 37.9 °F 55% 29.98 in 10.0 mi ESE 10.4 mph - N/A   Scattered Clouds
8:53 AM 59.0 °F 39.0 °F 48% 29.98 in 10.0 mi SE 13.8 mph 19.6 mph N/A   Scattered Clouds
9:53 AM 63.0 °F 39.9 °F 43% 29.96 in 10.0 mi SE 13.8 mph 21.9 mph N/A   Overcast
10:53 AM 68.0 °F 42.1 °F 39% 29.94 in 10.0 mi SSE 16.1 mph - N/A   Clear
11:53 AM 73.4 °F 44.6 °F 36% 29.93 in 10.0 mi SSE 16.1 mph 23.0 mph N/A   Clear
12:53 PM 75.9 °F 45.0 °F 33% 29.88 in 10.0 mi SSE 11.5 mph - N/A   Clear
1:53 PM 78.1 °F 46.0 °F 32% 29.85 in 10.0 mi South 18.4 mph 24.2 mph N/A   Clear
2:53 PM 80.1 °F 46.0 °F 30% 29.83 in 10.0 mi South 13.8 mph - N/A   Clear
3:53 PM 80.1 °F 46.9 °F 31% 29.81 in 10.0 mi SSE 13.8 mph - N/A   Clear
4:53 PM 80.1 °F 46.0 °F 30% 29.79 in 10.0 mi South 13.8 mph 23.0 mph N/A   Clear
5:53 PM 79.0 °F 48.0 °F 34% 29.78 in 10.0 mi SSE 15.0 mph 23.0 mph N/A   Clear
6:53 PM 77.0 °F 45.0 °F 32% 29.76 in 10.0 mi South 18.4 mph - N/A   Clear
7:53 PM 73.9 °F 44.1 °F 34% 29.76 in 10.0 mi South 12.7 mph - N/A   Clear
8:53 PM 72.0 °F 44.1 °F 37% 29.75 in 10.0 mi SE 8.1 mph - N/A   Clear
9:53 PM 71.1 °F 45.0 °F 39% 29.78 in 10.0 mi SSE 10.4 mph - N/A   Clear
10:53 PM 70.0 °F 48.0 °F 46% 29.75 in 10.0 mi SSE 13.8 mph - N/A   Clear
11:53 PM 69.1 °F 48.9 °F 49% 29.76 in 10.0 mi South 17.3 mph - N/A   Clear